Dewpoint
71 69 69 69 62 60 55 55 56 56 53 56 56 58 59 59 58 57 66 66 65 65 69 73 76 77 77 77 76 76 76 76 75 76 75 75 75 76 75 75 74 74 74 74 74 73 73 73 73
68 67 71 67 59 53 54 54 55 57 56 56 57 57 58 58 62 65 67 66 66 64 67 72 76 77 76 77 77 77 75 75 76 76 76 75 75 75 73 73 74 74 74 74 73 73 73 73 72
67 67 66 63 59 54 54 52 53 52 55 56 58 60 59 60 63 65 66 64 66 65 71 75 76 76 77 77 77 76 76 75 76 76 75 74 74 74 74 74 73 73 73 73 73 73 72 72 72
65 69 65 59 55 56 54 51 51 52 55 58 58 59 61 63 63 64 66 67 64 68 70 74 76 76 76 76 76 76 75 76 76 75 74 74 74 74 74 74 74 73 73 73 72 72 72 72 72
67 68 60 57 57 57 54 50 52 51 55 57 59 59 62 64 64 65 66 64 65 67 71 73 76 76 76 76 76 76 76 76 76 75 74 74 74 74 74 74 74 73 73 73 73 72 72 72 72
65 65 55 54 54 53 48 50 49 52 56 58 59 60 63 66 64 65 64 65 67 67 69 72 75 77 76 76 76 76 76 75 75 74 74 74 74 74 74 74 74 73 72 72 72 72 72 73 73
59 58 55 55 53 50 46 49 47 49 52 58 60 60 63 64 63 65 66 67 65 64 68 71 71 74 76 76 75 75 75 74 74 74 74 74 74 73 74 73 73 73 72 72 72 72 72 72 73
55 54 52 54 51 49 50 46 46 51 54 58 61 60 61 62 64 65 65 65 63 63 67 71 72 74 73 73 75 74 74 74 74 74 74 73 73 73 73 75 74 72 72 72 72 72 72 71 73
54 52 50 48 45 48 52 46 49 52 56 58 59 61 62 62 64 63 64 65 65 63 65 66 68 72 72 72 73 74 74 74 74 74 74 74 74 73 73 75 75 73 72 72 72 73 71 72 73
52 51 58 55 48 46 49 45 47 48 51 55 59 62 63 63 64 63 62 61 61 62 63 64 65 67 70 65 73 74 72 72 73 73 74 75 75 75 71 73 76 75 74 73 73 74 72 73 72
51 56 57 53 50 49 50 43 45 47 48 57 60 62 62 63 63 62 62 62 62 61 61 62 66 69 67 70 71 70 70 71 74 75 74 75 74 73 73 72 72 74 74 74 73 73 71 73 72
47 56 55 52 53 48 49 52 42 46 49 56 60 61 62 62 62 62 62 62 63 61 61 62 68 71 71 70 68 68 67 70 71 74 77 77 75 75 72 72 74 74 75 73 73 73 74 73 72
44 54 54 55 53 53 53 49 44 44 49 55 59 60 61 62 62 62 62 63 64 63 62 64 70 73 76 74 70 68 71 68 70 73 75 75 73 73 74 74 73 74 73 73 73 74 73 71 70
43 43 47 46 44 50 53 47 45 43 47 54 58 59 60 61 62 63 63 64 64 64 62 65 69 72 74 76 78 74 74 70 72 72 73 76 75 75 71 76 73 74 74 73 74 75 74 74 73
40 41 42 46 45 45 43 49 50 55 48 51 56 58 59 61 61 63 63 64 64 64 63 65 67 71 74 75 75 75 74 67 70 72 75 74 76 77 76 74 73 75 76 76 74 75 72 68 69
37 40 42 41 46 46 43 50 56 51 51 51 54 56 58 59 59 62 62 63 64 62 65 67 62 68 72 74 75 73 71 70 71 70 71 74 76 78 78 74 75 75 75 71 74 72 73 71 67
38 39 40 42 43 43 40 51 57 57 60 52 53 54 55 58 59 60 58 61 62 64 67 67 67 68 71 74 74 73 74 74 73 71 72 75 76 76 77 74 73 73 74 74 73 70 74 71 68
36 34 38 38 42 43 39 47 51 58 61 58 52 53 55 55 56 59 59 60 61 64 68 69 68 73 73 73 75 73 72 73 72 73 72 76 76 76 77 75 73 76 75 73 73 73 73 71 69
35 29 32 33 34 41 37 50 51 56 56 59 52 53 52 54 57 58 59 60 62 64 68 69 72 74 73 72 71 71 69 71 72 73 74 76 77 77 78 76 76 75 75 75 75 74 73 67 69
34 32 26 28 36 41 40 48 53 53 57 58 53 54 53 53 55 58 60 60 61 64 67 70 71 74 74 72 72 71 72 70 69 71 74 76 76 78 77 77 76 77 73 74 75 74 71 72 69
34 34 30 25 39 40 39 40 50 55 57 54 52 56 54 55 54 57 59 60 60 64 67 70 72 75 74 74 74 75 74 74 70 70 71 73 75 77 78 77 76 77 77 75 76 74 73 68 68
26 33 33 28 37 36 38 38 44 39 40 44 48 52 52 55 55 55 57 59 60 63 66 70 72 74 74 75 72 73 68 67 67 70 70 73 75 75 77 77 77 77 77 74 75 75 75 74 69
26 27 32 30 26 29 35 33 30 37 37 37 43 49 50 54 55 54 55 58 59 62 65 68 72 73 74 73 75 71 71 68 70 70 72 75 76 76 75 77 77 78 76 76 74 76 75 76 71
23 21 24 26 23 25 27 32 34 32 39 37 39 44 50 50 54 56 56 58 58 60 64 67 72 73 74 75 74 75 72 71 67 70 70 72 73 74 76 76 77 77 76 77 76 76 76 76 75
19 16 17 17 22 23 25 24 32 33 36 37 40 43 46 51 53 56 56 56 59 60 62 65 72 74 75 75 74 74 76 73 73 73 69 71 70 71 74 76 78 76 77 78 77 77 77 76 75
19 16 17 22 19 20 24 25 28 33 33 36 39 42 43 47 54 56 58 57 59 60 63 65 71 73 74 74 76 75 75 74 70 72 70 68 71 70 76 75 75 76 77 76 78 77 76 76 76
17 17 15 13 16 16 19 24 25 29 30 31 29 39 43 45 50 54 57 57 58 60 63 65 70 73 74 75 76 76 75 74 74 72 74 73 73 70 79 76 76 76 77 77 76 76 76 76 76
19 18 14 14 19 20 15 24 24 30 32 31 29 30 38 44 48 53 55 58 58 59 62 64 69 72 74 74 75 75 76 75 73 75 73 72 75 78 78 76 76 76 76 77 77 76 76 76 75
17 18 17 13 15 15 15 16 24 34 33 32 29 34 35 42 46 50 54 58 59 59 60 63 65 71 73 74 75 76 76 76 75 73 74 73 75 75 76 78 76 76 76 76 77 76 76 76 76
19 19 20 22 25 18 18 15 24 25 30 30 33 35 35 40 45 50 53 56 58 60 60 62 64 66 72 74 75 75 76 76 76 75 74 75 75 77 76 77 77 76 75 76 76 75 74 75 75
Lifted_Index
0 -0 -1 -1 -2 -2 -2 -2 -2 -1 -1 -1 -1 -1 -1 -1 -1 -0 0 1 1 -0 -2 -3 -5 -5 -6 -6 -6 -5 -5 -5 -6 -6 -6 -6 -6 -6 -6 -6 -5 -5 -5 -5 -5 -5 -5 -4 -4
0 -0 -1 -2 -2 -1 -1 -2 -1 -1 -1 -1 -1 -1 -1 -1 -1 -0 0 1 0 -1 -2 -3 -5 -5 -6 -6 -6 -5 -5 -5 -6 -6 -6 -6 -6 -6 -5 -5 -5 -5 -5 -5 -5 -5 -5 -5 -5
-0 -1 -2 -2 -2 -1 -1 -1 -1 -1 -1 -1 -1 -1 -1 -1 -0 0 0 0 -0 -1 -3 -4 -5 -5 -6 -6 -6 -6 -5 -5 -6 -6 -6 -5 -5 -5 -5 -5 -5 -5 -5 -5 -5 -5 -5 -5 -5
-1 -2 -2 -2 -2 -2 -2 -1 -1 -1 -1 -1 -1 -1 -1 -0 0 0 0 -0 -1 -2 -3 -4 -5 -5 -5 -5 -6 -6 -5 -5 -6 -5 -5 -5 -5 -6 -6 -5 -5 -5 -5 -5 -5 -5 -5 -5 -5
-2 -2 -2 -2 -1 -2 -2 -1 -1 -1 -1 -1 -1 -1 -1 -0 -0 -0 -0 -1 -2 -2 -3 -4 -5 -5 -5 -5 -5 -6 -6 -5 -5 -5 -5 -5 -5 -6 -6 -5 -5 -5 -5 -5 -5 -5 -5 -5 -5
-2 -2 -2 -1 -1 -2 -2 -1 -1 -0 -1 -1 -1 -1 -1 -1 -0 -1 -1 -1 -2 -2 -3 -4 -5 -5 -5 -5 -5 -6 -5 -5 -5 -5 -5 -5 -5 -5 -5 -5 -5 -5 -5 -5 -4 -4 -4 -5 -5
-2 -2 -2 -1 -1 -2 -2 -1 -1 -0 -0 -1 -1 -1 -1 -1 -1 -1 -1 -2 -2 -2 -2 -3 -4 -5 -5 -5 -5 -5 -5 -5 -5 -5 -5 -5 -5 -5 -5 -5 -4 -4 -4 -4 -4 -4 -4 -5 -5
-1 -1 -2 -2 -2 -2 -1 -1 -0 -0 -1 -1 -1 -1 -1 -1 -1 -1 -1 -1 -1 -1 -2 -3 -3 -4 -5 -4 -5 -5 -5 -5 -4 -4 -4 -4 -4 -4 -4 -4 -4 -4 -4 -4 -4 -4 -4 -5 -5
-1 -1 -2 -2 -2 -2 -1 -1 -0 -0 -1 -1 -2 -1 -1 -1 -1 -1 -1 -1 -1 -1 -1 -2 -3 -3 -4 -4 -4 -4 -4 -4 -4 -4 -4 -4 -4 -4 -4 -4 -4 -4 -4 -4 -4 -4 -4 -5 -5
-1 -1 -2 -2 -1 -1 -1 -1 -0 0 -0 -1 -2 -2 -1 -1 -1 -1 -1 -1 -0 -1 -1 -1 -2 -2 -3 -3 -3 -3 -3 -3 -4 -4 -4 -4 -4 -4 -4 -4 -5 -5 -5 -5 -4 -4 -4 -4 -5
-1 -1 -1 -1 -1 -1 -1 -1 0 0 0 -1 -2 -2 -1 -1 -1 -1 -1 -1 -0 -0 -0 -1 -2 -2 -2 -2 -2 -3 -3 -3 -4 -4 -4 -4 -4 -4 -4 -4 -5 -5 -5 -5 -4 -4 -4 -4 -5
-0 -1 -1 -1 -1 -1 -1 -1 -0 0 0 -1 -2 -2 -2 -2 -2 -1 -1 -1 -1 -0 -0 -1 -2 -2 -3 -3 -2 -2 -2 -3 -4 -4 -5 -4 -4 -4 -4 -4 -4 -5 -5 -4 -4 -4 -4 -4 -4
-1 -1 -1 -1 -2 -2 -2 -1 -0 0 0 -1 -2 -2 -2 -2 -2 -2 -1 -1 -1 -1 -1 -1 -2 -3 -3 -3 -2 -2 -2 -2 -3 -4 -4 -4 -4 -4 -4 -4 -4 -4 -4 -4 -4 -4 -4 -4 -4
-1 -1 -1 -2 -2 -3 -2 -1 -1 0 0 -1 -2 -2 -2 -2 -2 -2 -2 -2 -2 -1 -1 -1 -2 -3 -3 -3 -3 -3 -2 -2 -2 -3 -4 -4 -4 -4 -4 -4 -4 -4 -4 -4 -4 -4 -4 -4 -3
-0 -0 -1 -1 -2 -3 -2 -2 -1 -1 -0 -1 -2 -2 -2 -2 -2 -3 -3 -2 -2 -1 -1 -1 -2 -3 -3 -4 -4 -3 -3 -2 -2 -3 -4 -4 -4 -5 -4 -4 -4 -4 -4 -4 -4 -4 -4 -3 -3
1 1 -0 -1 -2 -2 -2 -2 -1 -2 -1 -1 -1 -2 -2 -2 -2 -2 -2 -2 -2 -1 -1 -2 -2 -2 -3 -4 -4 -4 -3 -2 -2 -2 -3 -4 -4 -5 -5 -4 -4 -4 -4 -4 -4 -4 -3 -3 -2
2 1 0 -1 -2 -2 -2 -2 -2 -2 -2 -2 -2 -1 -2 -2 -2 -2 -2 -2 -1 -1 -2 -2 -2 -2 -3 -4 -4 -4 -3 -3 -2 -2 -3 -4 -4 -5 -5 -4 -3 -4 -4 -4 -3 -4 -4 -3 -1
2 1 -0 -1 -2 -2 -2 -2 -1 -1 -1 -2 -2 -1 -1 -2 -2 -2 -1 -1 -1 -2 -2 -2 -2 -3 -4 -4 -4 -4 -3 -2 -2 -2 -3 -4 -5 -5 -5 -4 -4 -4 -4 -4 -4 -4 -4 -2 -1
2 1 0 -1 -1 -1 -2 -2 -1 -1 -1 -2 -2 -2 -1 -1 -1 -2 -1 -1 -1 -2 -2 -2 -3 -3 -4 -4 -4 -3 -3 -2 -2 -2 -2 -4 -5 -5 -5 -4 -4 -4 -4 -4 -4 -4 -3 -2 -1
2 1 0 -0 -1 -1 -1 -2 -2 -2 -2 -2 -2 -2 -1 -1 -1 -1 -1 -1 -1 -1 -2 -3 -3 -4 -4 -4 -3 -3 -3 -2 -2 -2 -3 -4 -5 -5 -5 -5 -4 -4 -4 -4 -4 -3 -3 -2 -0
3 2 0 -0 -1 -1 -1 -1 -2 -2 -2 -3 -3 -2 -2 -2 -1 -1 -1 -1 -1 -1 -2 -3 -4 -4 -4 -4 -3 -3 -3 -2 -2 -2 -3 -4 -5 -5 -5 -5 -4 -4 -4 -4 -4 -4 -3 -2 -1
4 3 1 -0 -1 -1 -1 -1 -1 -2 -2 -2 -3 -3 -2 -2 -1 -1 -1 -1 -1 -1 -2 -3 -4 -4 -4 -4 -3 -3 -2 -2 -2 -2 -3 -4 -5 -5 -6 -5 -5 -5 -4 -4 -4 -4 -4 -3 -2
4 3 1 0 -0 -1 -1 -1 -1 -1 -1 -1 -2 -3 -2 -2 -2 -1 -1 -0 -0 -1 -2 -3 -4 -4 -4 -4 -4 -3 -2 -2 -2 -2 -3 -4 -5 -6 -6 -6 -5 -5 -5 -5 -4 -4 -4 -4 -3
4 3 2 1 0 0 -0 -0 -0 -0 -0 -1 -1 -2 -2 -2 -2 -1 -1 -0 -0 -1 -2 -2 -3 -4 -4 -4 -4 -4 -3 -2 -2 -2 -3 -4 -5 -5 -6 -6 -6 -6 -5 -5 -5 -5 -5 -5 -4
4 3 2 1 0 1 1 0 0 -0 -0 -1 -1 -2 -2 -3 -2 -2 -1 -0 -0 -0 -1 -2 -3 -4 -5 -4 -4 -4 -4 -3 -2 -2 -3 -3 -4 -5 -5 -6 -6 -6 -6 -6 -6 -6 -6 -6 -6
4 4 2 1 0 0 1 1 1 0 -0 -1 -1 -1 -2 -2 -2 -2 -1 -0 -0 -0 -1 -2 -3 -4 -5 -5 -5 -4 -4 -4 -3 -3 -3 -3 -4 -4 -5 -6 -6 -6 -6 -6 -6 -7 -7 -6 -6
4 4 3 1 -0 -0 -0 0 1 1 0 -0 -1 -1 -2 -2 -2 -2 -2 -1 -0 -1 -1 -2 -3 -4 -5 -5 -5 -5 -5 -4 -4 -3 -3 -4 -4 -5 -6 -7 -7 -7 -7 -7 -7 -7 -7 -7 -7
4 3 3 1 0 -0 -1 -0 0 0 0 -0 -0 -1 -1 -2 -2 -2 -2 -2 -1 -1 -1 -2 -3 -4 -5 -5 -5 -5 -5 -5 -4 -4 -4 -4 -5 -6 -7 -7 -7 -7 -7 -7 -7 -7 -7 -7 -7
3 3 3 2 1 0 -1 -1 -0 -0 0 0 -0 0 -0 -1 -2 -2 -2 -2 -2 -1 -1 -2 -2 -4 -5 -5 -6 -6 -6 -6 -5 -5 -5 -5 -6 -6 -7 -7 -7 -7 -7 -8 -8 -8 -8 -8 -8
3 3 3 3 2 1 -0 -0 -0 -0 0 0 -0 0 0 -0 -2 -2 -2 -2 -2 -2 -2 -2 -2 -3 -5 -6 -6 -6 -6 -6 -6 -5 -5 -6 -6 -7 -7 -7 -8 -7 -7 -8 -8 -8 -8 -8 -8